Location: Unspecified
(22.6800°N, 112.2000°E)
Time: 16:59:45
(UTC+08:00)

Vanguard 1 Rocket - Visible Passes

Search period start: 31 July 2021 00:00
Search period end: 10 August 2021 00:00
Orbit: 650 x 4226 km, 34.3° (Epoch: 30 July)

Date Brightness Start Highest point End Pass type
(mag) Time Alt. Az. Time Alt. Az. Time Alt. Az.
01 Aug 11.7 05:19:26 10° S 05:37:06 23° SE 05:53:08 10° E visible
02 Aug 11.8 04:13:31 10° SSE 04:21:41 12° SE 04:29:54 10° ESE visible
03 Aug 11.6 05:19:35 10° S 05:39:46 30° SE 05:58:08 10° E visible
04 Aug 11.6 04:10:40 10° S 04:24:42 18° SE 04:38:57 10° ESE visible
05 Aug 11.5 05:20:21 10° SSW 05:42:12 38° SE 06:02:19 10° E visible
06 Aug 11.5 04:10:13 10° S 04:27:18 24° SE 04:45:02 10° E visible
07 Aug 11.6 03:05:06 10° SSE 03:12:36 12° SE 03:20:32 10° ESE visible
07 Aug 11.3 05:21:35 10° SSW 05:44:27 46° SE 06:05:58 10° ENE visible
08 Aug 11.3 04:10:44 10° S 04:29:37 31° SE 04:49:49 10° E visible
09 Aug 11.4 03:02:34 10° SSE 03:15:13 18° SE 03:29:28 10° E visible
09 Aug 11.2 05:23:09 10° SSW 05:46:36 55° SE 06:09:16 10° ENE visible
